OneWeb SL0603

operational
NORAD ID: 54667 Int'l Des: 2022-166 Owner: ONEWEBN Country: UK Constellation: oneweb
LEOCIRCULARPOLARONEWEB_TYPE

About OneWeb SL0603

Description loading...

Live Position

Loading 3D Globe...

Upcoming Passes

Altitude History

Altitude vs Time

uPlot chart will show altitude changes over time

Two-Line Element Set

1 54667U 22166AB 25305.46113697 .00000086 00000-0 17614-3 0 9993
2 54667 87.9181 289.3726 0001791 89.1709 270.9630 13.21825790141396
Epoch: Nov 1, 2025 • Age: 14 hours

Current Status

Altitude 1204.5 km
Velocity 7.25 km/s
Sub-Earth Point -67.14°S, 57.16°E
Launch Date Dec 8, 2022
Age 2.9 years
Type internet

Technical Details

Classification Payload
Mass 148.00 kg
Dry Mass 140.00 kg
Total Mass 148.00 kg
Length 1.30 m
Diameter 1.00 m
Span 5.00 m
Shape Trapezoid+2 pan
Manufacturer ONEWUS
Bus Type ARROW
Phase Status In Orbit
Owner/State ONEWEBN/UK

Large Constellations

Loading constellations...